SCP
0 -0 -0 -0 -0 -0 -0 -0 -0 -0 -0 -0 -0 -0 -0 -0 -0 -0 -0 -0 -0 -0 0 0 0 0 0 0 0 -0 -0 -0 -0 -0 -0 0 0 0 0 0 0 0 0
-0 -0 -0 -0 -1 -1 -0 -0 -0 -0 -0 -0 -0 -0 -0 -0 -0 -0 -0 -0 -0 -0 0 0 0 0 0 -0 -0 -0 -0 -0 -0 -0 0 0 0 0 0 0 0 0 0
-1 -0 -0 -0 -1 -1 -0 -0 -0 -0 -0 -0 -0 -0 -0 -0 -0 -0 -0 -0 -0 -0 -0 0 0 -0 0 0 -0 0 0 0 0 0 0 0 0 0 0 0 0 0 0
-2 -1 -0 -0 -1 -1 -0 -0 -0 -0 -0 -0 -0 -0 -0 -0 -0 -0 -0 -0 -0 -0 -0 -0 -0 -0 0 0 0 0 0 0 0 0 0 0 0 0 0 0 0 0 0
-1 -1 -0 -1 -1 -1 -1 -0 -0 -0 -0 -0 -0 -0 -0 -0 -0 -0 -0 -0 -0 -0 -0 0 0 0 0 0 0 0 0 0 0 0 0 0 0 0 0 0 0 0 0
-1 -1 -1 -1 -1 -1 -0 -0 -0 -0 -0 -0 -0 -0 -0 -0 -0 -0 -0 -0 -0 -0 0 0 0 0 0 0 0 0 0 0 0 0 0 0 0 0 0 0 0 0 0
0 -0 -0 -1 -1 -1 -0 -0 -0 -0 -0 -0 -0 -0 -0 -0 -0 -0 -0 -0 -0 0 0 0 0 0 0 -0 -0 -0 -0 0 0 0 0 0 0 0 0 0 0 0 0
1 0 0 -0 -1 -1 -0 -0 -0 -0 -0 -0 -0 -0 -0 -0 -0 -0 -0 0 0 0 -0 0 0 0 -0 -0 -0 -0 -0 0 0 0 0 0 0 0 0 1 0 0 1
1 1 0 0 -0 -0 -0 -0 -0 -0 -0 -0 -0 -0 -0 -0 -0 -0 0 0 0 0 0 0 0 0 0 -0 -0 -0 -0 -0 0 0 0 0 0 0 0 1 1 1 1
1 1 1 0 0 0 0 -0 -0 -0 -0 -0 -0 -0 -0 -0 0 0 -0 0 0 0 0 0 0 0 0 0 0 0 0 0 0 0 0 0 0 0 1 1 1 1 1
1 1 1 0 0 0 0 0 0 0 -0 -0 -0 -0 0 0 0 0 0 0 0 0 0 0 0 0 0 0 0 0 0 0 0 0 0 0 0 0 1 2 2 2 1
0 1 1 1 0 0 1 0 1 0 0 0 0 0 0 0 0 0 0 0 0 0 0 0 0 0 0 0 0 0 0 0 0 0 0 0 0 0 0 1 2 2 1
0 1 1 1 1 1 1 0 1 0 0 0 0 0 -0 -0 -0 -0 -0 -0 0 0 0 0 0 0 0 0 0 0 0 0 0 0 0 0 0 0 0 1 2 2 1
0 1 1 1 1 1 1 0 0 0 0 0 0 0 0 0 -0 -0 -0 0 0 0 0 0 0 0 0 0 0 0 0 0 0 0 0 0 0 0 1 1 2 2 1
0 0 1 1 0 1 1 0 0 0 0 0 0 0 0 0 -0 0 0 0 0 0 0 0 0 0 0 0 0 0 0 0 0 0 0 0 0 0 1 1 2 1 2
0 0 0 0 0 0 0 0 0 0 0 0 0 0 0 0 -0 0 0 -0 0 0 0 0 0 0 0 0 0 0 0 0 0 0 0 0 0 1 1 2 1 2 2
0 0 0 0 0 0 0 0 0 0 0 0 0 0 0 0 -0 0 0 -0 0 0 0 0 0 0 0 0 0 0 0 0 0 0 0 0 0 0 1 1 1 1 1
0 0 0 1 0 0 0 0 0 0 0 0 0 0 -0 -0 -0 0 0 0 1 0 0 0 0 0 0 0 0 0 0 0 0 0 0 0 0 1 1 0 0 0 0
1 0 0 1 0 0 0 0 1 0 0 0 0 0 -0 0 0 1 1 1 1 1 0 0 0 0 0 0 1 0 0 0 0 1 1 1 1 1 0 0 0 0 0
0 0 0 1 1 1 2 1 1 2 1 1 1 0 0 0 0 1 1 1 1 1 0 0 1 1 1 1 1 1 0 1 1 1 1 0 1 1 1 0 0 0 0
0 0 0 0 1 1 2 3 1 4 4 2 1 1 1 1 1 1 1 1 1 1 1 1 1 1 1 0 0 0 0 0 0 0 0 0 0 0 0 0 0 0 0
0 0 0 0 0 0 0 1 1 3 3 2 2 2 1 1 1 1 1 1 1 1 1 1 1 1 1 0 0 0 0 0 0 0 0 0 0 0 0 0 0 0 0
0 0 0 0 0 1 1 2 2 1 1 2 2 2 2 2 2 1 1 1 1 1 0 0 0 0 0 0 0 0 0 0 0 0 0 0 0 0 0 0 0 0 0
0 0 0 0 1 0 0 1 2 1 1 1 2 1 0 0 0 0 0 0 0 0 0 0 0 0 0 0 0 0 0 0 0 0 0 0 0 0 0 0 0 0 0
0 0 0 0 0 0 -0 0 0 0 0 0 0 0 0 0 0 0 0 0 0 0 0 0 0 0 0 0 0 0 0 0 0 0 0 0 0 0 0 0 0 0 0
1 0 0 0 0 0 -0 0 0 0 0 0 0 0 0 0 0 0 0 0 0 0 0 0 0 0 0 0 0 0 0 0 0 0 0 0 0 0 0 0 0 0 0
Wind_Speed_500mb
65 61 59 58 56 53 48 43 39 38 38 38 39 39 41 41 41 43 43 40 37 34 33 31 30 28 23 21 19 18 17 17 19 21 21 17 16 14 14 14 11 14 14
75 66 62 59 58 54 50 44 40 36 35 36 39 42 45 46 47 46 43 39 35 32 29 26 26 25 23 21 20 20 18 18 21 24 25 23 20 17 14 12 9 9 8
75 70 65 61 58 55 49 44 39 36 33 35 39 43 45 46 46 44 40 36 31 27 25 23 22 21 20 19 20 21 21 21 23 24 18 16 16 17 16 14 12 10 8
75 73 67 64 59 55 50 45 40 36 34 34 38 43 44 44 42 39 36 32 28 23 22 21 21 20 18 18 19 21 24 27 25 18 13 9 9 11 14 18 17 13 12
78 71 66 63 61 56 52 47 42 37 35 32 36 41 42 41 38 36 33 30 26 22 19 18 18 19 17 17 18 20 26 24 20 13 7 4 4 11 18 24 25 18 17
75 70 66 64 61 58 55 50 44 39 35 33 33 37 39 37 35 33 31 27 23 20 18 18 18 17 17 16 16 18 23 23 15 10 4 5 5 12 20 20 23 21 22
74 69 67 64 62 60 57 52 46 41 35 32 30 33 36 34 31 29 26 24 24 21 19 18 19 17 17 17 14 13 17 19 12 7 8 12 11 14 25 30 28 27 27
71 70 66 63 60 58 56 53 47 42 36 31 27 28 32 31 28 27 25 24 23 21 19 18 18 18 16 13 11 10 10 13 16 12 10 12 17 17 22 33 33 32 35
68 70 67 63 58 55 54 52 48 42 37 31 26 26 28 29 27 24 22 21 20 18 15 13 12 11 9 7 6 5 6 9 12 15 23 24 27 28 28 30 32 37 39
67 67 66 62 60 58 56 51 47 42 37 31 25 23 24 27 27 24 21 18 16 13 10 8 6 4 3 6 9 11 14 16 17 17 22 30 33 34 32 33 37 42 42
61 63 63 62 61 60 58 54 48 43 39 34 30 27 27 28 28 26 20 16 11 8 5 2 1 5 8 11 14 17 20 19 14 15 21 21 20 25 30 36 43 44 46
66 70 65 62 59 59 60 58 52 48 44 38 33 28 26 25 24 23 19 14 8 2 4 5 9 13 12 9 12 20 21 13 22 25 27 23 23 29 37 41 40 47 48
60 65 67 61 57 57 59 57 53 48 42 37 31 27 25 24 25 24 19 13 10 12 7 1 11 16 6 7 11 15 20 22 27 32 35 36 39 43 49 50 44 37 41
64 53 65 59 56 55 52 49 46 43 39 35 31 28 27 26 24 21 19 20 12 8 9 8 8 9 13 17 17 20 23 27 33 37 42 41 39 40 45 46 36 34 47
67 56 64 61 56 51 49 46 42 38 34 29 27 28 30 31 25 20 16 10 5 6 7 5 7 10 13 19 23 26 29 33 36 41 43 45 48 47 50 48 56 54 56
73 64 65 62 55 49 44 40 36 32 28 28 27 27 29 26 23 16 11 6 1 5 4 4 8 14 16 21 28 27 32 37 38 40 42 42 45 46 49 54 57 58 61
73 68 64 56 49 44 38 30 32 29 29 25 25 26 29 28 22 18 12 10 9 10 9 8 10 17 25 32 34 38 38 37 42 46 50 52 50 53 57 60 54 53 58
71 72 64 51 48 49 42 31 27 37 32 28 28 26 29 30 29 24 25 21 14 13 12 16 24 31 35 36 37 35 38 44 47 50 51 55 60 64 59 57 56 57 45
68 67 67 56 49 53 48 43 38 33 37 34 26 30 31 33 27 29 26 26 27 25 24 26 29 31 33 40 39 39 40 41 43 44 42 40 42 44 45 42 37 37 40
59 60 68 68 61 62 50 45 45 41 48 40 36 32 40 34 23 26 30 29 33 35 30 30 28 29 36 40 39 40 43 44 42 37 33 33 35 35 31 34 39 43 42
63 65 71 77 59 71 68 66 52 46 50 45 40 34 45 38 30 21 25 31 29 31 35 32 27 29 32 33 41 46 48 48 45 35 39 42 30 32 39 47 50 50 45
57 61 57 71 78 88 88 60 59 60 46 45 38 38 46 37 31 23 22 21 27 30 29 26 28 30 30 36 38 44 25 52 36 45 38 40 33 41 45 48 48 50 55
67 69 64 61 78 86 80 77 60 55 56 49 45 43 42 37 34 22 19 27 25 25 23 27 26 28 30 31 34 26 16 13 52 21 37 34 48 41 48 49 43 38 40
66 67 66 73 74 79 70 69 70 71 62 51 49 43 42 32 32 24 23 23 23 23 23 19 23 26 27 31 27 25 24 32 23 25 20 47 43 56 56 52 51 47 48
63 63 52 59 72 65 75 74 62 60 60 43 56 51 32 20 21 26 23 24 19 16 15 18 22 24 24 23 26 30 34 40 37 48 30 63 58 56 58 59 58 45 35
68 61 55 53 67 64 59 63 71 65 65 82 63 36 40 40 29 25 17 15 12 11 15 18 20 19 20 21 25 28 30 33 38 42 56 63 62 61 56 52 45 43 40
Wind_Direction_500mb
172 168 166 162 162 160 156 149 141 137 142 145 146 146 144 141 140 139 136 135 133 130 127 128 131 130 127 125 120 110 105 105 103 95 91 90 86 76 65 43 78 74 73
167 169 168 166 164 164 160 153 144 139 141 142 144 143 140 139 139 140 139 138 136 134 130 131 132 132 127 126 124 123 123 120 115 113 113 96 85 68 50 26 31 41 48
170 170 169 168 167 165 162 156 149 143 141 140 144 143 141 141 141 143 144 143 142 142 140 134 139 140 136 132 135 138 135 132 129 127 128 99 90 56 38 21 359 347 348
171 171 170 170 169 167 165 160 156 149 144 142 145 146 144 143 144 146 146 146 146 146 144 142 144 149 147 144 145 144 140 136 128 123 125 123 75 39 13 353 338 324 316
170 171 171 170 169 169 169 166 163 157 148 145 147 150 148 146 145 147 147 145 142 139 141 144 148 150 148 146 146 144 145 142 136 125 119 132 57 357 337 318 317 309 302
169 170 172 171 171 172 173 170 168 164 156 149 149 153 152 148 146 145 143 138 131 128 130 134 137 140 141 138 136 143 150 150 142 135 168 255 297 335 334 313 307 304 299
167 170 172 172 173 175 175 172 172 169 162 154 152 155 158 153 146 140 134 129 123 117 115 119 127 132 133 132 131 140 157 172 175 203 235 268 292 322 321 318 311 314 308
170 171 173 173 175 177 177 175 174 171 167 162 156 158 162 159 148 141 137 133 128 124 121 120 124 128 132 140 150 164 182 202 220 225 251 291 296 286 291 304 306 312 319
176 173 175 174 176 178 179 177 176 174 172 170 166 163 164 164 158 149 142 140 137 139 140 134 133 141 160 174 195 227 257 263 264 263 260 279 285 286 290 289 297 303 309
175 176 177 177 178 179 178 178 178 176 177 176 175 171 167 167 167 161 152 148 146 146 150 153 165 190 254 285 300 304 298 294 298 302 299 284 280 280 286 291 296 300 304
178 181 183 184 182 180 177 176 178 179 180 183 184 180 178 176 174 170 162 156 147 149 154 163 314 322 321 324 326 322 307 310 299 312 327 335 298 285 294 298 299 298 300
175 183 188 188 185 180 178 178 179 182 184 188 191 189 183 180 178 176 170 166 163 142 325 315 342 326 312 340 7 354 341 310 316 310 313 311 301 299 304 304 302 298 292
177 183 189 189 186 185 183 181 182 186 189 191 194 190 185 183 181 177 178 164 135 100 48 320 46 34 23 344 344 337 334 328 328 328 320 302 301 305 302 299 306 306 303
183 188 190 190 188 186 186 187 188 189 192 193 190 188 186 183 172 170 162 145 110 70 60 59 6 338 330 326 320 316 314 311 314 316 319 312 307 309 306 305 302 304 298
185 186 188 190 190 186 187 190 191 191 192 190 191 190 185 181 173 141 140 144 124 104 57 36 18 8 349 339 334 326 320 316 311 307 310 304 300 297 295 291 292 294 288
187 181 181 187 190 187 188 190 192 195 192 189 184 188 187 182 168 147 145 197 283 304 271 303 312 310 313 304 303 303 301 295 294 297 292 295 298 300 297 300 300 286 291
185 177 172 181 182 183 175 183 199 200 195 185 172 187 187 180 173 174 181 215 238 254 281 246 266 295 308 303 301 298 294 298 301 300 293 295 296 294 296 298 298 294 310
188 178 168 171 174 184 178 184 192 183 175 167 169 160 169 188 192 185 193 201 210 245 264 265 275 280 287 295 300 298 300 301 304 300 298 296 296 297 300 303 305 309 311
191 182 172 176 184 177 188 191 188 190 200 197 189 193 179 189 205 211 212 220 214 228 237 261 274 290 294 299 303 304 304 306 311 314 314 312 311 310 312 322 333 330 319
184 188 194 187 182 187 183 185 193 207 221 214 206 204 202 198 204 217 222 221 229 234 245 258 276 288 297 301 305 308 312 315 315 314 322 332 327 324 330 331 326 319 314
180 185 198 204 218 195 187 185 197 202 199 200 208 212 205 199 197 205 216 222 237 251 258 264 274 288 298 304 310 310 313 314 315 314 314 323 324 314 313 310 307 306 299
192 188 196 200 188 194 202 221 201 200 194 208 206 204 206 219 212 210 213 227 235 243 256 276 287 295 299 310 321 324 324 319 317 321 330 328 320 310 309 308 310 307 304
189 187 192 194 191 200 211 207 199 211 205 205 203 203 213 213 217 209 228 218 229 251 263 275 282 293 304 314 323 328 336 302 312 301 319 323 318 316 318 320 323 329 326
192 192 189 187 193 204 211 211 205 218 219 214 206 213 214 208 217 210 224 229 242 262 268 279 289 296 308 308 312 315 313 306 317 321 288 314 310 313 317 320 320 318 317
189 186 187 197 193 212 216 212 209 209 210 222 223 206 208 227 261 246 234 232 244 251 268 281 285 301 305 312 311 307 305 309 317 324 331 326 320 314 314 318 325 330 325
172 177 179 189 198 225 225 214 211 197 238 212 216 207 213 210 212 216 233 233 250 257 274 286 296 297 302 311 315 320 324 331 323 323 320 323 328 326 322 331 339 336 335
Wind_Speed_850mb
65 61 59 58 56 53 48 43 39 38 38 38 39 39 41 41 41 43 43 40 37 34 33 31 30 28 23 21 19 18 17 17 19 21 21 17 16 14 14 14 11 14 14
75 66 62 59 58 54 50 44 40 36 35 36 39 42 45 46 47 46 43 39 35 32 29 26 26 25 23 21 20 20 18 18 21 24 25 23 20 17 14 12 9 9 8
75 70 65 61 58 55 49 44 39 36 33 35 39 43 45 46 46 44 40 36 31 27 25 23 22 21 20 19 20 21 21 21 23 24 18 16 16 17 16 14 12 10 8
75 73 67 64 59 55 50 45 40 36 34 34 38 43 44 44 42 39 36 32 28 23 22 21 21 20 18 18 19 21 24 27 25 18 13 9 9 11 14 18 17 13 12
78 71 66 63 61 56 52 47 42 37 35 32 36 41 42 41 38 36 33 30 26 22 19 18 18 19 17 17 18 20 26 24 20 13 7 4 4 11 18 24 25 18 17
75 70 66 64 61 58 55 50 44 39 35 33 33 37 39 37 35 33 31 27 23 20 18 18 18 17 17 16 16 18 23 23 15 10 4 5 5 12 20 20 23 21 22
74 69 67 64 62 60 57 52 46 41 35 32 30 33 36 34 31 29 26 24 24 21 19 18 19 17 17 17 14 13 17 19 12 7 8 12 11 14 25 30 28 27 27
71 70 66 63 60 58 56 53 47 42 36 31 27 28 32 31 28 27 25 24 23 21 19 18 18 18 16 13 11 10 10 13 16 12 10 12 17 17 22 33 33 32 35
68 70 67 63 58 55 54 52 48 42 37 31 26 26 28 29 27 24 22 21 20 18 15 13 12 11 9 7 6 5 6 9 12 15 23 24 27 28 28 30 32 37 39
67 67 66 62 60 58 56 51 47 42 37 31 25 23 24 27 27 24 21 18 16 13 10 8 6 4 3 6 9 11 14 16 17 17 22 30 33 34 32 33 37 42 42
61 63 63 62 61 60 58 54 48 43 39 34 30 27 27 28 28 26 20 16 11 8 5 2 1 5 8 11 14 17 20 19 14 15 21 21 20 25 30 36 43 44 46
66 70 65 62 59 59 60 58 52 48 44 38 33 28 26 25 24 23 19 14 8 2 4 5 9 13 12 9 12 20 21 13 22 25 27 23 23 29 37 41 40 47 48
60 65 67 61 57 57 59 57 53 48 42 37 31 27 25 24 25 24 19 13 10 12 7 1 11 16 6 7 11 15 20 22 27 32 35 36 39 43 49 50 44 37 41
64 53 65 59 56 55 52 49 46 43 39 35 31 28 27 26 24 21 19 20 12 8 9 8 8 9 13 17 17 20 23 27 33 37 42 41 39 40 45 46 36 34 47
67 56 64 61 56 51 49 46 42 38 34 29 27 28 30 31 25 20 16 10 5 6 7 5 7 10 13 19 23 26 29 33 36 41 43 45 48 47 50 48 56 54 56
73 64 65 62 55 49 44 40 36 32 28 28 27 27 29 26 23 16 11 6 1 5 4 4 8 14 16 21 28 27 32 37 38 40 42 42 45 46 49 54 57 58 61
73 68 64 56 49 44 38 30 32 29 29 25 25 26 29 28 22 18 12 10 9 10 9 8 10 17 25 32 34 38 38 37 42 46 50 52 50 53 57 60 54 53 58
71 72 64 51 48 49 42 31 27 37 32 28 28 26 29 30 29 24 25 21 14 13 12 16 24 31 35 36 37 35 38 44 47 50 51 55 60 64 59 57 56 57 45
68 67 67 56 49 53 48 43 38 33 37 34 26 30 31 33 27 29 26 26 27 25 24 26 29 31 33 40 39 39 40 41 43 44 42 40 42 44 45 42 37 37 40
59 60 68 68 61 62 50 45 45 41 48 40 36 32 40 34 23 26 30 29 33 35 30 30 28 29 36 40 39 40 43 44 42 37 33 33 35 35 31 34 39 43 42
63 65 71 77 59 71 68 66 52 46 50 45 40 34 45 38 30 21 25 31 29 31 35 32 27 29 32 33 41 46 48 48 45 35 39 42 30 32 39 47 50 50 45
57 61 57 71 78 88 88 60 59 60 46 45 38 38 46 37 31 23 22 21 27 30 29 26 28 30 30 36 38 44 25 52 36 45 38 40 33 41 45 48 48 50 55
67 69 64 61 78 86 80 77 60 55 56 49 45 43 42 37 34 22 19 27 25 25 23 27 26 28 30 31 34 26 16 13 52 21 37 34 48 41 48 49 43 38 40
66 67 66 73 74 79 70 69 70 71 62 51 49 43 42 32 32 24 23 23 23 23 23 19 23 26 27 31 27 25 24 32 23 25 20 47 43 56 56 52 51 47 48
63 63 52 59 72 65 75 74 62 60 60 43 56 51 32 20 21 26 23 24 19 16 15 18 22 24 24 23 26 30 34 40 37 48 30 63 58 56 58 59 58 45 35
68 61 55 53 67 64 59 63 71 65 65 82 63 36 40 40 29 25 17 15 12 11 15 18 20 19 20 21 25 28 30 33 38 42 56 63 62 61 56 52 45 43 40
Wind_Direction_850mb
172 168 166 162 162 160 156 149 141 137 142 145 146 146 144 141 140 139 136 135 133 130 127 128 131 130 127 125 120 110 105 105 103 95 91 90 86 76 65 43 78 74 73
167 169 168 166 164 164 160 153 144 139 141 142 144 143 140 139 139 140 139 138 136 134 130 131 132 132 127 126 124 123 123 120 115 113 113 96 85 68 50 26 31 41 48
170 170 169 168 167 165 162 156 149 143 141 140 144 143 141 141 141 143 144 143 142 142 140 134 139 140 136 132 135 138 135 132 129 127 128 99 90 56 38 21 359 347 348
171 171 170 170 169 167 165 160 156 149 144 142 145 146 144 143 144 146 146 146 146 146 144 142 144 149 147 144 145 144 140 136 128 123 125 123 75 39 13 353 338 324 316
170 171 171 170 169 169 169 166 163 157 148 145 147 150 148 146 145 147 147 145 142 139 141 144 148 150 148 146 146 144 145 142 136 125 119 132 57 357 337 318 317 309 302
169 170 172 171 171 172 173 170 168 164 156 149 149 153 152 148 146 145 143 138 131 128 130 134 137 140 141 138 136 143 150 150 142 135 168 255 297 335 334 313 307 304 299
167 170 172 172 173 175 175 172 172 169 162 154 152 155 158 153 146 140 134 129 123 117 115 119 127 132 133 132 131 140 157 172 175 203 235 268 292 322 321 318 311 314 308
170 171 173 173 175 177 177 175 174 171 167 162 156 158 162 159 148 141 137 133 128 124 121 120 124 128 132 140 150 164 182 202 220 225 251 291 296 286 291 304 306 312 319
176 173 175 174 176 178 179 177 176 174 172 170 166 163 164 164 158 149 142 140 137 139 140 134 133 141 160 174 195 227 257 263 264 263 260 279 285 286 290 289 297 303 309
175 176 177 177 178 179 178 178 178 176 177 176 175 171 167 167 167 161 152 148 146 146 150 153 165 190 254 285 300 304 298 294 298 302 299 284 280 280 286 291 296 300 304
178 181 183 184 182 180 177 176 178 179 180 183 184 180 178 176 174 170 162 156 147 149 154 163 314 322 321 324 326 322 307 310 299 312 327 335 298 285 294 298 299 298 300
175 183 188 188 185 180 178 178 179 182 184 188 191 189 183 180 178 176 170 166 163 142 325 315 342 326 312 340 7 354 341 310 316 310 313 311 301 299 304 304 302 298 292
177 183 189 189 186 185 183 181 182 186 189 191 194 190 185 183 181 177 178 164 135 100 48 320 46 34 23 344 344 337 334 328 328 328 320 302 301 305 302 299 306 306 303
183 188 190 190 188 186 186 187 188 189 192 193 190 188 186 183 172 170 162 145 110 70 60 59 6 338 330 326 320 316 314 311 314 316 319 312 307 309 306 305 302 304 298
185 186 188 190 190 186 187 190 191 191 192 190 191 190 185 181 173 141 140 144 124 104 57 36 18 8 349 339 334 326 320 316 311 307 310 304 300 297 295 291 292 294 288
187 181 181 187 190 187 188 190 192 195 192 189 184 188 187 182 168 147 145 197 283 304 271 303 312 310 313 304 303 303 301 295 294 297 292 295 298 300 297 300 300 286 291
185 177 172 181 182 183 175 183 199 200 195 185 172 187 187 180 173 174 181 215 238 254 281 246 266 295 308 303 301 298 294 298 301 300 293 295 296 294 296 298 298 294 310
188 178 168 171 174 184 178 184 192 183 175 167 169 160 169 188 192 185 193 201 210 245 264 265 275 280 287 295 300 298 300 301 304 300 298 296 296 297 300 303 305 309 311
191 182 172 176 184 177 188 191 188 190 200 197 189 193 179 189 205 211 212 220 214 228 237 261 274 290 294 299 303 304 304 306 311 314 314 312 311 310 312 322 333 330 319
184 188 194 187 182 187 183 185 193 207 221 214 206 204 202 198 204 217 222 221 229 234 245 258 276 288 297 301 305 308 312 315 315 314 322 332 327 324 330 331 326 319 314
180 185 198 204 218 195 187 185 197 202 199 200 208 212 205 199 197 205 216 222 237 251 258 264 274 288 298 304 310 310 313 314 315 314 314 323 324 314 313 310 307 306 299
192 188 196 200 188 194 202 221 201 200 194 208 206 204 206 219 212 210 213 227 235 243 256 276 287 295 299 310 321 324 324 319 317 321 330 328 320 310 309 308 310 307 304
189 187 192 194 191 200 211 207 199 211 205 205 203 203 213 213 217 209 228 218 229 251 263 275 282 293 304 314 323 328 336 302 312 301 319 323 318 316 318 320 323 329 326
192 192 189 187 193 204 211 211 205 218 219 214 206 213 214 208 217 210 224 229 242 262 268 279 289 296 308 308 312 315 313 306 317 321 288 314 310 313 317 320 320 318 317
189 186 187 197 193 212 216 212 209 209 210 222 223 206 208 227 261 246 234 232 244 251 268 281 285 301 305 312 311 307 305 309 317 324 331 326 320 314 314 318 325 330 325
172 177 179 189 198 225 225 214 211 197 238 212 216 207 213 210 212 216 233 233 250 257 274 286 296 297 302 311 315 320 324 331 323 323 320 323 328 326 322 331 339 336 335